Regional Weather Roundup
Issued by NWS

Home | Current Version | Previous Version | Graphics & Text | Print | Product List | Glossary On
Versions: 1 2 3 4 5 6 7 8 9 10 11 12 13 14 15 16 17 18 19 20 21 22 23 24 25 26 27 28 29 30 31 32 33 34 35 36 37 38 39 40 41 42 43 44 45 46 47 48 49 50
000
ASUS43 KLMK 240910
RWRKY
KENTUCKY REGIONAL WEATHER ROUNDUP
NATIONAL WEATHER SERVICE LOUISVILLE KY
400 AM EST TUE JAN 24 2017

NOTE "FAIR" INDICATES FEW OR NO CLOUDS BELOW 12,000 FEET
WITH NO SIGNIFICANT WEATHER AND/OR OBSTRUCTIONS TO VISIBILITY.

KYZ001>023-026-027-061>063-070>075-241000-
WESTERN AND SOUTH CENTRAL KENTUCKY

CITY           SKY/WX    TMP DP  RH WIND       PRES   REMARKS
PADUCAH        CLOUDY    41  33  73 N5        29.88R
HENDERSON      CLOUDY    41  34  75 NW9       29.87R
OWENSBORO      CLOUDY    41  35  79 NW10      29.86R
HOPKINSVILLE   CLOUDY    41  34  77 NW7       29.86R
BOWLING GREEN  CLOUDY    42  35  76 W9        29.85R
GLASGOW        CLOUDY    39  35  86 W6        29.83R WCI  35
$$

KYZ024-025-028>034-038-045-046-053-241000-
NORTH CENTRAL KENTUCKY

CITY           SKY/WX    TMP DP  RH WIND       PRES   REMARKS
LOUISVILLE/SDF CLOUDY    41  36  82 NW9       29.80S
LOUISVILLE/LOU CLOUDY    41  36  82 NW10      29.81R
FORT KNOX      CLOUDY    38  37  93 W7        29.80R WCI  33
$$

KYZ035>037-039>044-047>052-055>060-089>105-241000-
NORTHEAST KENTUCKY

CITY           SKY/WX    TMP DP  RH WIND       PRES   REMARKS
LEXINGTON      CLOUDY    41  38  89 W10       29.76S FOG
COVINGTON      CLOUDY    40  39  97 NW10      29.74S WCI  33
FRANKFORT      CLOUDY    41  37  86 W5        29.76R
$$

KYZ054-064>069-076>088-106>120-241000-
SOUTHEAST KENTUCKY

CITY           SKY/WX    TMP DP  RH WIND       PRES   REMARKS
JACKSON        LGT RAIN  41  40  96 W9G17     29.71R FOG
LONDON         CLOUDY    40 N/A N/A W12       29.76R HAZE    WCI  33
SOMERSET       CLOUDY    37  37 100 W6        29.80F FOG     WCI  33
MIDDLESBORO    CLOUDY    42  39  89 N5        29.75F
MONTICELLO     CLOUDY    39  38  96 W9        29.81F WCI  33
$$





USA.gov is the U.S. government's official web portal to all federal, state and local government web resources and services.